RH
63 65 67 44 48 38 45 49 51 39 36 49 46 42 35 32 35 38 40 35 33 35 32 52 69 87 92 92 96 96 91 86 73 47 41 43 44 45 44 43 41 42 41 42
69 75 42 45 50 59 56 55 45 39 50 51 39 40 31 30 35 37 38 35 31 29 31 54 68 87 93 94 93 96 94 89 73 46 39 38 38 42 42 48 45 44 43 45
46 41 51 57 58 61 53 52 42 47 48 44 47 25 31 26 34 38 40 36 33 27 29 42 65 87 97 97 95 95 93 95 83 52 44 44 45 48 48 49 49 50 46 49
52 38 52 57 53 52 47 43 51 60 64 66 46 39 26 30 29 30 30 33 35 33 30 32 58 80 96 96 93 93 91 92 93 64 50 50 51 53 45 48 48 50 46 49
48 63 64 62 50 50 52 58 59 59 65 66 52 74 32 29 26 30 28 32 31 30 31 35 48 64 84 94 96 91 90 90 86 77 60 54 46 43 40 44 44 45 47 48
51 53 57 45 54 54 53 59 58 59 75 87 40 58 47 24 26 30 25 29 30 29 33 37 42 56 77 89 94 92 88 88 85 80 74 60 50 44 50 48 47 48 49 51
48 53 50 53 55 65 62 56 85 88 95 65 83 78 36 26 30 31 31 31 31 29 31 35 45 54 72 90 92 92 88 86 80 82 76 68 59 55 51 51 52 52 50 51
56 60 54 55 46 62 69 57 67 58 66 46 64 65 37 32 34 35 33 32 34 33 30 36 41 49 60 86 91 90 84 78 75 75 77 72 63 64 60 50 51 48 45 44
37 35 55 56 54 46 67 86 46 52 62 66 37 34 29 25 32 34 32 35 34 28 28 32 41 47 56 75 84 88 79 74 70 71 73 70 72 71 66 64 48 52 46 42
50 56 36 54 61 60 56 44 75 75 84 61 41 43 52 38 36 34 34 34 34 33 30 30 33 54 54 57 70 77 78 74 69 71 73 72 73 66 67 65 65 54 47 45
58 55 57 71 74 63 70 70 60 52 48 45 32 38 39 45 35 34 33 33 33 34 32 33 33 38 57 60 66 77 77 76 72 76 72 76 80 73 70 72 66 63 57 54
65 80 75 51 40 49 47 47 48 57 52 56 44 47 31 35 38 38 34 34 33 34 36 35 36 38 47 65 65 75 81 79 74 71 72 84 82 80 78 72 70 77 64 62
52 80 81 49 40 48 68 56 53 46 44 44 63 48 31 38 39 41 41 36 36 34 35 33 33 36 36 49 66 76 72 83 84 79 80 83 89 91 85 80 74 68 66 68
47 73 71 80 47 62 80 59 51 58 69 50 56 42 30 32 38 39 39 39 33 33 35 34 33 34 34 36 52 65 80 82 84 87 89 91 90 88 88 86 86 76 67 66
51 81 55 70 60 57 74 77 80 85 62 53 39 37 33 26 26 25 28 32 32 32 33 33 35 39 40 38 40 69 70 76 86 88 88 85 86 88 89 90 90 87 80 71
41 67 49 63 41 43 53 51 58 66 57 64 52 42 28 30 28 32 30 31 34 33 33 32 35 35 37 38 39 40 71 77 81 89 93 89 89 90 91 89 88 84 85 90
59 69 62 71 36 33 45 34 39 43 53 48 59 45 34 38 34 34 33 34 35 33 29 33 33 39 44 43 43 42 44 70 83 88 92 93 94 96 97 92 89 90 89 86
63 65 68 82 46 75 28 18 25 36 45 43 41 37 33 34 30 26 28 32 30 28 29 35 39 45 53 53 54 55 60 72 85 88 87 95 95 95 95 98 97 97 95 96
55 88 90 87 61 40 27 23 28 34 36 31 32 32 30 28 29 34 30 30 32 36 42 47 51 55 62 67 70 73 74 84 90 84 87 94 96 99 99 98 98 98 98 98
43 84 90 74 88 72 31 20 18 19 33 22 22 31 30 32 47 32 44 47 51 52 54 56 61 63 65 70 71 76 83 80 82 84 87 92 95 97 99 98 99 99 98 99
62 72 88 86 86 55 28 24 25 40 26 22 27 31 33 36 33 45 50 56 54 54 57 56 59 61 61 59 61 68 71 81 82 83 81 81 83 89 91 95 96 98 99 99
88 91 74 60 76 83 58 53 39 35 31 33 33 31 33 44 53 54 56 58 58 60 58 56 56 58 57 57 55 63 70 72 72 72 73 72 66 66 68 71 79 86 92 96
87 88 89 86 62 47 72 85 76 63 27 36 44 41 53 60 62 61 63 62 59 56 54 52 54 56 56 57 56 60 63 64 64 64 66 65 63 61 60 59 63 66 70 75
61 61 89 94 80 88 89 84 70 58 63 64 54 57 59 64 63 64 61 58 58 58 59 58 60 63 65 62 61 60 56 56 60 64 67 67 65 62 59 61 59 58 64 68
80 84 90 88 87 87 86 96 66 64 65 68 64 68 66 64 65 65 68 69 70 71 70 67 67 68 69 66 67 63 64 57 62 66 68 68 66 62 63 64 59 56 61 66
93 95 94 91 94 96 97 98 93 91 92 88 85 86 77 75 80 79 86 84 86 91 85 88 90 86 76 69 72 74 65 61 61 64 65 65 62 61 62 60 62 84 79 79
Wind_Speed
8 9 15 14 15 10 8 12 16 16 13 15 15 25 25 23 18 21 20 18 17 17 9 9 13 21 18 18 19 15 14 14 10 11 12 10 11 10 9 8 12 13 11 12
6 15 15 9 9 11 13 14 16 13 2 9 19 28 27 14 10 16 18 17 18 17 11 10 12 13 18 19 17 18 15 13 15 11 11 9 10 9 9 8 10 12 13 13
16 1 3 10 8 10 12 15 15 11 13 10 15 15 7 10 4 1 8 14 15 16 14 12 13 14 15 17 19 20 20 16 14 14 10 8 8 7 8 10 10 11 13 13
13 15 9 7 10 11 12 6 14 10 8 6 7 9 12 6 12 3 5 10 11 12 11 12 14 15 15 16 17 17 18 18 16 15 15 16 13 12 9 11 10 11 14 14
6 5 10 11 10 13 5 3 4 5 8 11 4 5 8 7 6 7 7 3 7 6 10 12 14 14 15 14 15 15 15 18 17 17 15 12 14 10 8 10 14 13 13 14
16 1 5 7 6 13 4 5 2 2 4 7 6 7 7 4 1 1 4 5 3 1 5 10 11 13 14 12 12 13 14 14 15 15 16 17 17 15 10 12 11 11 11 11
7 16 5 9 8 7 12 8 3 5 5 6 1 5 13 5 5 9 9 7 8 4 4 7 13 14 14 14 14 14 16 17 18 17 16 15 16 15 17 16 11 13 11 11
7 10 14 14 16 11 22 12 6 6 5 1 3 9 5 2 2 3 5 7 5 1 2 3 9 14 16 17 16 15 17 18 19 18 19 17 17 10 10 13 10 10 11 12
8 13 2 11 6 11 9 11 6 5 2 5 6 8 14 12 9 8 3 4 8 8 6 5 4 11 16 16 19 17 20 19 19 18 14 16 14 16 13 13 13 10 10 9
5 10 8 4 5 6 7 12 6 6 7 8 6 7 11 3 3 11 9 10 7 3 6 6 2 8 13 17 17 19 20 20 19 18 15 14 15 16 15 14 14 13 12 13
11 7 3 6 13 13 8 9 7 4 6 6 6 5 6 9 6 11 9 9 5 1 5 7 6 3 10 14 16 17 19 21 17 16 17 15 13 16 15 13 14 13 11 13
8 7 11 18 9 12 19 15 20 10 12 6 9 9 3 4 4 5 7 5 2 3 7 7 6 5 6 11 14 14 15 17 18 16 16 15 13 13 13 14 14 13 13 12
9 5 8 15 15 8 12 17 17 19 11 18 10 8 2 4 6 8 7 9 4 4 7 5 6 7 6 7 11 11 14 14 14 14 13 13 12 11 12 13 13 13 14 14
11 10 16 16 17 17 10 16 23 24 16 21 19 16 11 8 4 5 6 9 8 7 7 5 8 7 7 6 7 11 10 11 11 12 12 12 14 14 13 14 13 13 14 14
5 11 18 22 24 26 21 22 24 20 28 23 23 22 20 18 14 11 8 12 13 9 9 6 7 7 6 8 7 8 10 12 12 12 13 14 14 14 13 11 13 12 12 13
14 16 18 23 26 26 29 29 24 25 25 27 27 26 9 11 12 12 14 11 12 14 10 5 5 7 7 7 6 5 7 9 10 11 10 11 11 11 13 12 11 11 13 13
21 17 20 25 27 25 24 28 28 27 26 25 24 21 15 19 17 15 16 11 13 15 11 7 4 3 5 5 4 5 5 5 7 8 8 8 9 9 9 11 12 13 13 13
24 22 16 20 21 25 17 20 21 20 25 27 27 24 20 20 19 18 12 14 11 10 9 4 3 1 1 4 4 3 2 3 3 2 4 5 8 9 9 9 10 10 9 11
15 16 7 12 17 24 24 22 20 18 22 22 25 23 24 22 21 19 10 5 3 2 3 4 4 3 3 4 5 3 3 2 2 3 3 2 3 4 5 7 8 6 7 7
9 13 11 11 13 23 22 26 28 24 26 21 23 24 25 21 13 13 8 8 7 6 5 4 5 6 7 6 5 5 5 5 5 5 4 4 3 4 4 4 5 3 4 5
12 11 15 15 17 17 20 23 15 25 8 22 24 26 21 16 8 13 12 12 11 9 8 8 10 10 10 8 7 9 7 8 5 4 6 6 6 6 4 4 3 3 5 4
11 6 8 9 13 10 17 16 21 14 3 8 10 13 11 13 15 14 15 14 12 12 11 11 11 12 12 11 8 10 10 6 6 7 7 7 8 6 5 6 5 5 5 4
5 7 9 8 11 25 31 24 32 25 19 13 6 11 20 20 18 17 16 14 13 13 12 12 12 13 13 13 12 11 9 7 7 9 9 8 8 8 7 6 6 5 4 4
15 9 6 17 7 17 31 32 14 11 6 10 10 19 19 22 19 19 15 14 13 13 13 12 13 14 14 14 14 12 10 8 9 9 8 8 8 8 8 6 5 4 4 3
11 13 17 19 17 30 15 10 10 15 18 20 20 21 20 20 19 17 16 15 14 14 14 13 13 14 14 14 15 14 12 10 11 10 8 9 7 8 7 8 7 5 6 5
13 11 11 8 22 18 20 22 15 20 20 19 24 24 21 18 19 18 16 14 14 14 14 14 14 14 14 14 15 14 12 12 11 10 8 8 7 6 6 6 7 14 9 8
Wind_Direction
196 221 221 219 217 258 275 271 275 279 284 295 275 284 285 283 262 245 249 247 243 244 238 211 200 182 184 188 162 182 181 182 172 176 177 177 182 175 178 179 175 175 171 172
191 238 249 262 241 237 249 266 275 288 238 292 300 295 293 298 284 247 236 243 246 245 223 194 197 176 183 172 179 176 187 176 190 177 185 181 177 185 176 174 179 180 176 173
226 342 13 202 217 220 239 251 272 277 318 260 298 283 301 321 293 210 233 244 249 241 224 197 197 183 168 179 182 179 183 173 204 184 176 171 155 154 175 184 182 184 182 180
243 258 226 204 236 220 266 249 263 285 306 298 359 293 308 324 324 254 215 232 241 237 222 213 201 197 173 177 187 190 176 183 175 193 182 181 182 177 195 182 177 179 185 184
213 207 199 216 229 193 248 162 218 274 283 310 199 253 273 320 351 37 55 25 233 240 223 215 203 200 189 170 178 181 185 176 184 191 186 184 194 192 183 179 179 181 183 188
258 216 225 228 190 201 143 164 199 257 268 253 233 230 277 260 92 76 354 23 75 231 220 216 218 207 198 180 174 174 179 183 185 190 197 196 193 189 184 184 179 184 179 187
215 229 215 206 224 193 200 184 230 224 212 256 62 230 261 255 241 284 300 330 318 284 214 223 210 207 198 177 179 181 187 195 190 190 196 202 206 201 189 186 188 176 181 188
258 258 188 183 216 194 197 193 213 246 212 136 164 237 256 291 192 257 292 319 328 16 322 278 228 218 201 189 182 187 191 191 190 191 195 203 204 205 205 193 188 190 196 197
275 252 149 200 166 174 160 216 230 261 181 263 222 254 276 257 249 238 166 122 99 77 42 25 245 225 221 201 199 194 200 204 198 199 196 202 200 203 206 200 194 195 198 198
307 286 233 158 182 206 217 150 166 215 217 233 219 253 248 268 202 158 143 145 141 95 17 11 38 216 220 214 211 208 210 212 205 204 194 195 196 210 202 207 199 202 196 189
350 247 173 153 210 194 183 203 220 243 235 242 247 227 194 219 155 167 151 165 165 341 325 321 311 240 217 221 209 208 213 217 208 204 200 195 194 204 199 206 211 203 197 192
5 295 261 243 236 240 236 237 210 217 195 249 279 243 165 198 221 205 189 212 151 303 312 316 316 290 207 217 223 203 203 210 215 205 205 195 192 194 203 211 202 208 205 195
344 309 297 253 224 209 236 234 244 243 267 236 221 232 204 245 244 225 240 189 257 328 318 324 320 306 268 207 217 224 214 211 212 215 205 202 195 196 203 211 213 200 201 195
273 243 254 273 286 333 277 256 233 227 227 237 231 244 200 221 239 202 220 241 275 293 304 317 304 311 288 254 221 217 215 223 219 202 206 193 198 208 208 205 209 206 204 199
245 259 273 283 287 290 290 296 293 243 236 239 239 230 238 259 271 287 273 279 292 319 315 315 304 300 288 273 253 226 218 214 202 208 208 213 201 197 203 200 199 195 199 200
263 270 278 279 274 276 277 281 275 283 257 247 253 255 242 271 281 277 276 280 295 295 294 305 296 294 284 259 254 251 243 229 208 198 200 203 203 192 192 195 201 201 200 198
264 259 260 263 272 277 262 249 259 266 262 250 245 245 243 248 255 253 261 269 265 279 296 302 286 276 303 290 253 242 243 234 224 201 196 193 188 187 182 184 189 196 197 195
260 254 247 255 267 260 267 260 257 265 255 242 245 250 248 247 257 260 252 251 260 276 297 323 296 275 285 313 308 308 251 193 221 214 188 183 186 188 190 189 197 196 195 195
234 249 241 244 247 257 257 258 227 241 256 240 244 243 244 242 246 258 222 216 235 272 353 18 348 14 19 16 3 38 61 80 85 139 152 153 168 161 167 183 186 184 176 183
301 224 227 229 257 258 254 247 237 246 256 259 264 248 233 225 216 241 132 125 108 86 60 73 73 63 50 29 49 78 67 66 58 40 48 52 78 110 119 116 122 118 164 165
305 293 270 249 265 260 257 265 284 215 232 229 235 238 225 220 223 110 117 98 89 84 76 75 73 67 50 41 62 70 65 54 38 55 68 60 61 65 80 77 65 107 111 111
300 323 301 305 292 269 15 306 243 261 224 281 270 246 220 127 122 112 99 94 95 90 80 73 75 65 54 44 55 62 52 33 57 74 73 66 68 73 85 101 117 113 107 107
19 339 306 290 283 313 312 294 281 284 260 276 242 140 131 126 121 111 106 100 90 86 80 70 70 67 54 48 43 52 38 46 55 65 64 62 63 63 65 90 100 99 125 146
340 338 283 309 291 299 295 296 243 247 138 104 138 118 114 117 109 105 102 94 88 77 71 69 66 58 52 44 43 37 38 58 74 69 63 62 62 58 54 64 61 90 95 88
343 306 316 284 291 312 342 355 90 97 91 90 89 90 89 97 98 99 94 87 80 76 69 64 63 58 49 41 40 32 24 43 61 63 60 61 60 66 71 57 37 42 46 30
345 333 337 317 321 337 349 12 50 80 81 82 88 82 80 91 93 92 83 78 76 72 68 66 60 58 51 50 47 38 35 46 57 57 50 47 55 55 60 82 87 53 61 66